Home > Weather > Richmond Hill > Past weeks

Flag for Canada Past Weather in Richmond Hill, Ontario, Canada — Yesterday and Last 2 Weeks

Now
79 °F

Scattered clouds.


Feels Like: 82 °F
Forecast: 71 / 85 °F
Wind: 6 mph from West

Location: Toronto Buttonville

Current Time: Aug 25, 2016 at 11:17:03 AM

Latest Report: Aug 25, 2016 at 10:00 AM


Visibility: 12 mi

Pressure: 29.93 "Hg

Humidity: 79%

Dew Point: 72 °F

Location of Richmond HillLocation

Past Weather in Richmond Hill — Graph

°F

Richmond Hill Temperature Yesterday

Maximum temperature yesterday: 84 °F (at 3:00 PM)
Minimum temperature yesterday: 61 °F (at 6:00 AM)
Average temperature yesterday: 74 °F

High & Low Weather Summary for the Past Weeks

 TemperatureHumidityPressure
High95 °F (Aug 12, 3:00 PM)100% (Aug 16, 4:00 AM)30.26 "Hg (Aug 16, 4:00 AM)
Low54 °F (Aug 22, 6:00 AM)32% (Aug 10, 2:00 PM)29.57 "Hg (Aug 21, 5:00 AM)
Average74 °F71%29.97 "Hg
* Reported Aug 10 10:00 AM — Aug 25 10:00 AM, Richmond Hill, Weather by CustomWeather, © 2016

Note: Actual official high and low records may vary slightly from our data, if they occured in-between our weather recording intervals... More about our weather records

Advertising

Richmond Hill Weather History for the Previous 24 Hours

Scroll right to see more
 ConditionsComfort  
Time TempWeatherWind HumidityBarometerVisibility
10:00 AM
Thu, Aug 25
79 °FScattered clouds.6 mph79%29.93 "Hg12 mi
9:00 AM77 °FBroken clouds.3 mph83%29.91 "Hg8 mi
8:00 AM73 °FFog.5 mph94%29.92 "Hg6 mi
7:00 AM72 °FPassing clouds.2 mph94%29.92 "Hg8 mi
6:00 AM72 °FOvercast.5 mph94%29.92 "Hg8 mi
5:00 AM72 °FPassing clouds.3 mph94%29.89 "Hg8 mi
4:46 AM72 °FPassing clouds.5 mph94%29.89 "Hg8 mi
4:00 AM72 °FSprinkles. Fog.6 mph94%29.90 "Hg5 mi
3:00 AM72 °FSprinkles. Fog.3 mph94%29.90 "Hg5 mi
2:00 AM73 °FSprinkles. Overcast.6 mph78%29.92 "Hg15 mi
1:54 AM75 °FSprinkles. Overcast.5 mph69%29.92 "Hg8 mi
1:00 AM75 °FPassing clouds.3 mph69%29.94 "Hg15 mi
12:00 AM75 °FMostly cloudy.6 mph65%29.95 "Hg15 mi
11:00 PM
Wed, Aug 24
77 °FPartly cloudy.6 mph57%29.98 "Hg15 mi
10:00 PM77 °FPartly cloudy.6 mph57%29.98 "Hg15 mi
9:00 PM79 °FPartly sunny.7 mph51%30.00 "Hg15 mi
8:00 PM79 °FPartly sunny.12 mph51%30.00 "Hg15 mi
7:00 PM81 °FBroken clouds.13 mph51%30.00 "Hg15 mi
6:00 PM81 °FPartly sunny.14 mph48%30.02 "Hg15 mi
5:00 PM81 °FPartly sunny.16 mph45%30.03 "Hg15 mi
4:00 PM84 °FBroken clouds.14 mph43%30.05 "Hg15 mi
3:00 PM84 °FScattered clouds.16 mph43%30.07 "Hg15 mi
2:00 PM82 °FPassing clouds.20 mph48%30.09 "Hg15 mi
1:00 PM81 °FPassing clouds.14 mph54%30.11 "Hg15 mi
12:00 PM79 °FScattered clouds.12 mph54%30.14 "Hg15 mi
11:00 AM77 °FPartly sunny.9 mph61%30.16 "Hg15 mi
Weather by CustomWeather, © 2016

See weather overviewHow to use our weather pages